NOAA 16 DEB

Satellite information

Favourite Embed

Satellite Type and Status

DEBRISIN ORBIT

Key statistics

Satellite NOAA 16 DEB at a glance.

Uptime

9214

Days in orbit

Revolutions

≈ 14.4

Per day

Orbit

SSO

Sun Synchronous Orbit

Inclination

98.6

Latest

Satellite identification and parameters

Extended collection of information and parameters for NOAA 16 DEB.

Object identification

Identified? True

Debris? True

Object name: NOAA 16 DEB

International designator: 2000-055KN

Object number (NORAD): 41409

Object ID (CCSDS): 41409

Country: UNITED STATES OF AMERICA (US)

Current information (Y/N): Y

RCS size: SMALL

Orbital parameters

Period: 99.94 minutes

Inclination: 98.6468 deg

SMA: 7133.773 km

Apoapsis: 773.309 km

Periapsis: 737.967 km

RAAN: 63.6957 deg

Eccentricy: 0.00247715

Argument of periapsis: 53.382 deg

Mean anomaly: 306.9642 deg

Mean motion: 14.40866771 rev/day

Mean motion (dot): 0.00011284 rev/day2

B* drag term: 0.0035158722 1/REarth

Two-line elements (TLE)

Creation date: Dec. 10, 2025, 10:40 a.m.

Reference frame: TEME

Reference center: EARTH

Epoch: Dec. 9, 2025, 4:42 p.m. UTC

TLE line 0: 0 NOAA 16 DEB

TLE line 1: 1 41409U 00055KN 25343.69599494 .00011284 00000-0 35159-2 0 9991

TLE line 2: 2 41409 98.6468 63.6957 0024771 53.3820 306.9642 14.40866771508657

Live tracking on map

Real-time ground track for satellite NOAA 16 DEB.

In-orbit conjunctions

A list of the most updated potential collisions computed for object NOAA 16 DEB.

Target Orbit TCA Probability of collision Miss distance Type
IRIDIUM 16 LEO 2025-09-22 19:17:49 0.005871 62.0 (m) PAYLOAD
COSMOS 1371 LEO 2025-03-22 08:50:16 0.0001407152 839.0 (m) PAYLOAD
COSMOS 1275 DEB LEO 2024-06-24 18:56:48 0.000220916 89.0 (m) DEBRIS

Associated space launch

The NOAA K, L and M POES satellites begin the fifth generation of improved environmental monitoring in support of NOAA missions. The instrument payload has significant improvements and additions/deletions. The instrument changes have effected the spacecraft subsystems and data formats.

NOAA 16 DEB was lifted into orbit during the mission ‘Titan II SLV | NOAA 16’, on board a Titan II SLV space rocket.

The launch took place on Sept. 21, 2000, 10:22 a.m. from Space Launch Complex 4W.

For more information about the launch, click the button.

Launch to space Titan II SLV | NOAA 16
Titan II SLV | NOAA 16

Agency: N/A

Status: Launch Successful

Launch date: Sept. 21, 2000, 10:22 a.m. UTC

Rocket: Titan II SLV

Launch pad: Space Launch Complex 4W

Location: Vandenberg SFB, CA, USA

...

Latest news about this satellite

There are no fresh news available about this satellite. Check back as we update our databases every day.


Newsletter sign-up

Weekly statistics, charts and insights to help you stay on top of the space industry.